Location: Bouchavesnes-Bergen
(49.9859°N, 2.9203°E)
Time: 22:01:50
(UTC+00:00)

CZ-2C R/B - Pass Details

Date: 09 March 2021
Orbit: 500 x 567 km, 97.7° (Epoch: 13 April)

Event Time Altitude Azimuth Distance (km) Brightness Sun altitude
Rises 03:58:36 0° 10° (N) 2,709 6.8 -22.4°
Reaches altitude 10° 04:00:46 10° 7° (N) 1,800 5.8 -22.0°
Enters shadow 04:04:08 56° 323° (NW) 637 2.9 -21.5°
